Precipitable_Water
0.12 0.07 0.07 0.07 0.09 0.10 0.12 0.13 0.12 0.14 0.13 0.12 0.13 0.10 0.07 0.07 0.08 0.08 0.08 0.14 0.17 0.11 0.08 0.08 0.09 0.14 0.15 0.15 0.16 0.18 0.19 0.19 0.19 0.18 0.19 0.19 0.20 0.21 0.21 0.21 0.20 0.21 0.21 0.23 0.23 0.22 0.20 0.19 0.18 0.17 0.17 0.16 0.15 0.14 0.14 0.14 0.13 0.13 0.12 0.12 0.11 0.12 0.13 0.13 0.15 0.17 0.19 0.18 0.18 0.19 0.19 0.19 0.20 0.21 0.21 0.21 0.21 0.21 0.23 0.28 0.32 0.37 0.41 0.41 0.38 0.36
0.11 0.07 0.08 0.10 0.11 0.11 0.13 0.15 0.15 0.14 0.17 0.15 0.13 0.09 0.07 0.08 0.07 0.08 0.08 0.15 0.18 0.11 0.08 0.10 0.13 0.13 0.16 0.17 0.18 0.19 0.19 0.18 0.19 0.18 0.19 0.20 0.21 0.21 0.21 0.21 0.21 0.22 0.23 0.24 0.22 0.21 0.20 0.20 0.18 0.17 0.15 0.14 0.12 0.12 0.12 0.12 0.13 0.13 0.12 0.12 0.13 0.14 0.14 0.14 0.16 0.19 0.20 0.20 0.19 0.19 0.19 0.19 0.19 0.19 0.19 0.19 0.19 0.19 0.19 0.19 0.21 0.25 0.31 0.35 0.37 0.39
0.07 0.08 0.10 0.13 0.13 0.15 0.17 0.17 0.15 0.13 0.13 0.16 0.14 0.09 0.08 0.07 0.07 0.08 0.10 0.15 0.15 0.14 0.11 0.13 0.14 0.17 0.19 0.18 0.19 0.19 0.19 0.20 0.21 0.20 0.20 0.21 0.21 0.21 0.22 0.21 0.21 0.22 0.22 0.21 0.20 0.21 0.20 0.19 0.17 0.15 0.13 0.12 0.12 0.12 0.13 0.13 0.13 0.13 0.14 0.14 0.15 0.16 0.17 0.17 0.18 0.20 0.21 0.20 0.20 0.21 0.21 0.20 0.20 0.20 0.20 0.20 0.20 0.21 0.20 0.19 0.18 0.17 0.23 0.32 0.39 0.42
0.07 0.10 0.12 0.14 0.14 0.14 0.15 0.17 0.10 0.09 0.14 0.15 0.12 0.10 0.08 0.07 0.06 0.05 0.08 0.10 0.11 0.11 0.10 0.12 0.13 0.14 0.17 0.19 0.18 0.20 0.21 0.22 0.23 0.23 0.23 0.23 0.21 0.22 0.22 0.22 0.21 0.21 0.20 0.20 0.20 0.18 0.18 0.16 0.14 0.13 0.12 0.12 0.11 0.11 0.12 0.14 0.14 0.14 0.15 0.16 0.17 0.17 0.18 0.19 0.20 0.21 0.21 0.21 0.21 0.23 0.23 0.23 0.22 0.20 0.21 0.21 0.21 0.21 0.20 0.20 0.20 0.18 0.17 0.24 0.36 0.41
0.09 0.11 0.15 0.15 0.16 0.14 0.13 0.14 0.09 0.08 0.08 0.15 0.12 0.11 0.09 0.06 0.07 0.09 0.08 0.11 0.13 0.11 0.16 0.17 0.16 0.14 0.15 0.16 0.16 0.19 0.22 0.22 0.22 0.22 0.23 0.23 0.23 0.23 0.24 0.23 0.22 0.22 0.22 0.20 0.18 0.17 0.15 0.13 0.12 0.12 0.12 0.12 0.11 0.12 0.13 0.15 0.15 0.16 0.16 0.17 0.18 0.18 0.19 0.20 0.21 0.21 0.21 0.22 0.23 0.24 0.23 0.23 0.22 0.22 0.21 0.20 0.20 0.20 0.20 0.20 0.20 0.20 0.19 0.20 0.27 0.33
0.11 0.12 0.15 0.14 0.13 0.14 0.13 0.10 0.10 0.09 0.07 0.08 0.13 0.12 0.09 0.07 0.08 0.09 0.10 0.12 0.10 0.09 0.18 0.17 0.11 0.10 0.17 0.14 0.15 0.18 0.20 0.20 0.23 0.22 0.22 0.23 0.23 0.24 0.22 0.22 0.23 0.24 0.22 0.20 0.18 0.15 0.14 0.14 0.12 0.11 0.10 0.10 0.12 0.14 0.15 0.15 0.16 0.16 0.17 0.18 0.18 0.19 0.20 0.21 0.21 0.22 0.23 0.23 0.23 0.23 0.22 0.21 0.21 0.20 0.19 0.19 0.18 0.18 0.19 0.19 0.20 0.21 0.21 0.21 0.21 0.27
0.12 0.15 0.14 0.11 0.12 0.12 0.09 0.11 0.12 0.10 0.07 0.08 0.11 0.10 0.08 0.09 0.10 0.10 0.11 0.12 0.09 0.08 0.12 0.18 0.13 0.10 0.13 0.11 0.15 0.18 0.19 0.20 0.22 0.22 0.23 0.23 0.23 0.23 0.22 0.23 0.23 0.21 0.19 0.18 0.16 0.15 0.13 0.13 0.12 0.11 0.11 0.12 0.13 0.14 0.15 0.15 0.16 0.17 0.17 0.18 0.19 0.19 0.20 0.22 0.22 0.23 0.24 0.24 0.24 0.24 0.23 0.22 0.21 0.20 0.19 0.20 0.20 0.20 0.20 0.21 0.21 0.22 0.23 0.23 0.24 0.22
0.13 0.14 0.10 0.10 0.10 0.08 0.07 0.07 0.10 0.11 0.09 0.07 0.11 0.10 0.10 0.10 0.10 0.11 0.12 0.13 0.11 0.13 0.15 0.19 0.17 0.11 0.09 0.11 0.16 0.20 0.20 0.21 0.21 0.22 0.23 0.24 0.24 0.23 0.23 0.22 0.20 0.19 0.17 0.16 0.15 0.14 0.14 0.13 0.12 0.11 0.12 0.14 0.14 0.15 0.16 0.16 0.17 0.17 0.18 0.18 0.19 0.20 0.21 0.22 0.23 0.24 0.25 0.24 0.24 0.23 0.22 0.22 0.21 0.20 0.20 0.20 0.21 0.22 0.22 0.22 0.22 0.23 0.23 0.24 0.25 0.26
0.12 0.11 0.09 0.09 0.10 0.08 0.07 0.09 0.11 0.13 0.10 0.09 0.13 0.12 0.10 0.11 0.12 0.12 0.13 0.13 0.13 0.13 0.12 0.14 0.13 0.10 0.09 0.11 0.20 0.21 0.19 0.20 0.21 0.23 0.24 0.25 0.24 0.23 0.21 0.20 0.19 0.17 0.17 0.16 0.15 0.14 0.13 0.12 0.12 0.13 0.14 0.15 0.15 0.16 0.16 0.17 0.18 0.18 0.18 0.19 0.20 0.20 0.22 0.22 0.23 0.22 0.22 0.23 0.24 0.23 0.22 0.21 0.22 0.22 0.22 0.22 0.22 0.23 0.23 0.23 0.23 0.23 0.23 0.24 0.24 0.26
0.12 0.14 0.13 0.13 0.11 0.07 0.08 0.09 0.12 0.14 0.10 0.13 0.14 0.15 0.14 0.12 0.13 0.13 0.13 0.13 0.12 0.12 0.11 0.10 0.12 0.09 0.09 0.11 0.14 0.20 0.19 0.20 0.22 0.24 0.23 0.22 0.23 0.22 0.20 0.18 0.18 0.17 0.16 0.15 0.14 0.13 0.13 0.13 0.14 0.15 0.15 0.16 0.16 0.17 0.17 0.18 0.18 0.18 0.19 0.20 0.21 0.21 0.22 0.22 0.22 0.22 0.22 0.24 0.24 0.24 0.24 0.23 0.23 0.23 0.23 0.23 0.23 0.23 0.24 0.23 0.22 0.23 0.24 0.24 0.24 0.25
0.14 0.17 0.18 0.13 0.09 0.09 0.09 0.10 0.15 0.14 0.15 0.16 0.18 0.14 0.10 0.10 0.10 0.13 0.15 0.14 0.12 0.10 0.11 0.11 0.11 0.11 0.10 0.12 0.16 0.15 0.19 0.19 0.20 0.19 0.21 0.22 0.21 0.19 0.18 0.17 0.17 0.16 0.15 0.14 0.14 0.13 0.13 0.14 0.15 0.15 0.16 0.17 0.18 0.18 0.18 0.18 0.19 0.21 0.21 0.20 0.20 0.21 0.23 0.24 0.23 0.23 0.23 0.25 0.26 0.26 0.25 0.24 0.22 0.22 0.21 0.20 0.21 0.23 0.24 0.23 0.23 0.23 0.24 0.25 0.24 0.24
0.13 0.16 0.14 0.15 0.18 0.12 0.13 0.10 0.17 0.16 0.17 0.17 0.15 0.10 0.09 0.09 0.10 0.10 0.10 0.10 0.09 0.08 0.10 0.11 0.11 0.13 0.10 0.12 0.17 0.19 0.21 0.21 0.18 0.19 0.20 0.20 0.18 0.18 0.18 0.17 0.16 0.15 0.14 0.14 0.13 0.13 0.13 0.14 0.14 0.14 0.15 0.16 0.17 0.18 0.18 0.19 0.21 0.21 0.21 0.21 0.20 0.21 0.22 0.22 0.23 0.24 0.24 0.24 0.24 0.25 0.24 0.24 0.24 0.23 0.22 0.21 0.21 0.22 0.24 0.25 0.24 0.24 0.24 0.24 0.24 0.25
0.12 0.12 0.14 0.16 0.17 0.12 0.10 0.09 0.14 0.13 0.15 0.14 0.13 0.11 0.08 0.08 0.08 0.07 0.08 0.07 0.08 0.08 0.10 0.12 0.12 0.11 0.11 0.15 0.18 0.21 0.19 0.20 0.21 0.21 0.20 0.19 0.17 0.16 0.16 0.15 0.15 0.15 0.14 0.14 0.14 0.13 0.13 0.13 0.13 0.14 0.15 0.17 0.17 0.18 0.18 0.19 0.20 0.20 0.19 0.19 0.19 0.20 0.22 0.23 0.24 0.24 0.24 0.24 0.24 0.24 0.24 0.25 0.25 0.25 0.25 0.23 0.22 0.23 0.24 0.26 0.25 0.25 0.25 0.26 0.25 0.25
0.10 0.14 0.17 0.16 0.15 0.13 0.13 0.08 0.08 0.08 0.11 0.13 0.11 0.10 0.08 0.07 0.07 0.07 0.08 0.09 0.09 0.09 0.11 0.12 0.14 0.11 0.13 0.15 0.20 0.18 0.20 0.22 0.22 0.22 0.19 0.16 0.16 0.15 0.14 0.14 0.14 0.14 0.13 0.14 0.14 0.13 0.13 0.13 0.13 0.14 0.16 0.17 0.18 0.19 0.19 0.19 0.19 0.18 0.18 0.19 0.20 0.21 0.22 0.21 0.22 0.24 0.24 0.25 0.25 0.26 0.26 0.26 0.27 0.26 0.26 0.26 0.24 0.24 0.24 0.25 0.26 0.26 0.26 0.26 0.26 0.26
0.07 0.07 0.13 0.13 0.09 0.13 0.12 0.10 0.11 0.10 0.13 0.13 0.13 0.11 0.10 0.09 0.09 0.07 0.09 0.08 0.08 0.09 0.11 0.13 0.12 0.11 0.11 0.16 0.18 0.19 0.21 0.22 0.23 0.19 0.18 0.17 0.16 0.15 0.14 0.13 0.13 0.13 0.13 0.13 0.12 0.11 0.12 0.14 0.14 0.15 0.15 0.16 0.17 0.18 0.19 0.18 0.18 0.17 0.17 0.19 0.21 0.22 0.22 0.21 0.22 0.25 0.26 0.26 0.25 0.24 0.25 0.25 0.27 0.27 0.27 0.27 0.27 0.26 0.26 0.26 0.26 0.26 0.27 0.27 0.27 0.28
0.09 0.08 0.14 0.15 0.14 0.14 0.12 0.14 0.15 0.13 0.16 0.14 0.12 0.14 0.11 0.10 0.13 0.10 0.11 0.11 0.11 0.10 0.09 0.11 0.10 0.12 0.13 0.18 0.19 0.22 0.22 0.21 0.19 0.17 0.17 0.16 0.15 0.14 0.13 0.12 0.12 0.13 0.13 0.13 0.13 0.12 0.13 0.13 0.15 0.16 0.15 0.16 0.17 0.18 0.18 0.17 0.17 0.16 0.17 0.19 0.21 0.21 0.21 0.22 0.22 0.21 0.20 0.20 0.21 0.21 0.21 0.21 0.22 0.24 0.26 0.27 0.28 0.29 0.28 0.28 0.28 0.27 0.26 0.26 0.26 0.27
0.09 0.08 0.14 0.15 0.15 0.13 0.13 0.15 0.15 0.18 0.09 0.11 0.12 0.11 0.12 0.14 0.14 0.12 0.13 0.14 0.11 0.10 0.09 0.12 0.11 0.13 0.15 0.15 0.19 0.23 0.20 0.17 0.18 0.18 0.16 0.14 0.13 0.12 0.12 0.12 0.13 0.13 0.14 0.14 0.14 0.13 0.12 0.14 0.14 0.15 0.15 0.16 0.16 0.16 0.16 0.16 0.16 0.16 0.18 0.20 0.21 0.20 0.22 0.22 0.21 0.19 0.18 0.18 0.19 0.20 0.20 0.21 0.21 0.22 0.23 0.23 0.24 0.26 0.28 0.29 0.28 0.27 0.27 0.26 0.27 0.27
0.09 0.08 0.12 0.14 0.12 0.15 0.17 0.16 0.17 0.19 0.18 0.14 0.11 0.13 0.15 0.18 0.17 0.16 0.11 0.10 0.10 0.09 0.09 0.11 0.11 0.11 0.12 0.11 0.20 0.17 0.15 0.17 0.16 0.15 0.14 0.13 0.12 0.12 0.12 0.13 0.13 0.13 0.14 0.14 0.13 0.12 0.12 0.13 0.14 0.15 0.16 0.16 0.15 0.14 0.14 0.14 0.15 0.17 0.18 0.20 0.20 0.21 0.22 0.21 0.20 0.19 0.20 0.20 0.20 0.20 0.21 0.21 0.21 0.22 0.22 0.23 0.23 0.24 0.25 0.27 0.28 0.28 0.27 0.26 0.26 0.26
0.14 0.09 0.13 0.13 0.14 0.15 0.17 0.17 0.15 0.19 0.20 0.14 0.13 0.19 0.13 0.10 0.10 0.13 0.11 0.08 0.09 0.09 0.10 0.10 0.11 0.11 0.12 0.12 0.15 0.14 0.15 0.15 0.14 0.13 0.13 0.12 0.12 0.12 0.12 0.13 0.14 0.15 0.14 0.14 0.14 0.13 0.12 0.13 0.15 0.15 0.16 0.15 0.14 0.13 0.13 0.14 0.15 0.17 0.19 0.20 0.20 0.21 0.21 0.20 0.19 0.18 0.19 0.20 0.21 0.22 0.22 0.22 0.23 0.24 0.23 0.24 0.24 0.25 0.24 0.26 0.28 0.27 0.27 0.26 0.26 0.27
0.15 0.10 0.10 0.14 0.13 0.14 0.16 0.15 0.10 0.13 0.18 0.18 0.18 0.17 0.18 0.15 0.12 0.11 0.11 0.12 0.13 0.10 0.10 0.09 0.10 0.10 0.13 0.14 0.15 0.16 0.15 0.15 0.14 0.13 0.12 0.12 0.13 0.12 0.13 0.13 0.14 0.14 0.14 0.14 0.12 0.11 0.12 0.14 0.15 0.15 0.14 0.13 0.13 0.13 0.14 0.15 0.16 0.17 0.18 0.19 0.20 0.21 0.21 0.19 0.18 0.18 0.18 0.20 0.22 0.21 0.21 0.23 0.24 0.25 0.26 0.26 0.26 0.26 0.26 0.26 0.26 0.26 0.25 0.25 0.26 0.28
0.13 0.16 0.09 0.12 0.14 0.14 0.11 0.13 0.11 0.11 0.12 0.14 0.15 0.14 0.15 0.15 0.17 0.15 0.15 0.13 0.12 0.11 0.10 0.09 0.08 0.10 0.14 0.16 0.17 0.16 0.15 0.14 0.14 0.13 0.13 0.13 0.13 0.13 0.13 0.13 0.14 0.14 0.13 0.13 0.13 0.13 0.13 0.13 0.14 0.14 0.13 0.12 0.13 0.14 0.15 0.16 0.16 0.17 0.18 0.19 0.20 0.20 0.19 0.18 0.18 0.18 0.18 0.20 0.22 0.21 0.20 0.22 0.24 0.25 0.24 0.24 0.24 0.24 0.26 0.26 0.25 0.25 0.25 0.26 0.26 0.29
0.13 0.13 0.11 0.12 0.11 0.11 0.12 0.15 0.15 0.15 0.15 0.14 0.14 0.14 0.15 0.15 0.13 0.11 0.10 0.17 0.14 0.11 0.10 0.10 0.09 0.10 0.15 0.19 0.18 0.15 0.15 0.15 0.14 0.13 0.13 0.12 0.12 0.13 0.13 0.13 0.14 0.14 0.14 0.13 0.12 0.13 0.14 0.15 0.14 0.13 0.13 0.13 0.13 0.14 0.14 0.16 0.17 0.17 0.18 0.20 0.20 0.19 0.18 0.17 0.17 0.18 0.19 0.21 0.22 0.21 0.21 0.20 0.21 0.23 0.24 0.23 0.22 0.23 0.24 0.26 0.27 0.27 0.26 0.26 0.28 0.31
0.17 0.15 0.14 0.10 0.11 0.12 0.13 0.15 0.18 0.17 0.17 0.16 0.16 0.15 0.17 0.17 0.16 0.13 0.10 0.11 0.13 0.13 0.13 0.12 0.11 0.10 0.17 0.17 0.16 0.16 0.16 0.14 0.14 0.14 0.13 0.13 0.12 0.13 0.13 0.14 0.14 0.14 0.13 0.13 0.13 0.14 0.14 0.14 0.13 0.12 0.13 0.13 0.13 0.14 0.15 0.16 0.16 0.17 0.18 0.20 0.20 0.18 0.17 0.17 0.17 0.18 0.19 0.20 0.21 0.21 0.20 0.19 0.19 0.21 0.22 0.21 0.21 0.22 0.24 0.25 0.26 0.27 0.27 0.27 0.28 0.29
0.20 0.16 0.11 0.11 0.12 0.15 0.16 0.18 0.18 0.18 0.18 0.16 0.18 0.18 0.17 0.15 0.16 0.14 0.13 0.14 0.13 0.13 0.12 0.12 0.10 0.11 0.16 0.17 0.17 0.17 0.15 0.14 0.14 0.14 0.13 0.13 0.13 0.13 0.13 0.14 0.14 0.14 0.13 0.13 0.13 0.13 0.13 0.12 0.11 0.12 0.12 0.13 0.13 0.14 0.15 0.16 0.16 0.17 0.19 0.20 0.19 0.18 0.18 0.17 0.17 0.17 0.18 0.20 0.21 0.20 0.19 0.18 0.19 0.20 0.20 0.20 0.20 0.22 0.24 0.25 0.25 0.26 0.26 0.25 0.26 0.28
0.13 0.13 0.12 0.10 0.09 0.10 0.12 0.14 0.14 0.17 0.17 0.15 0.15 0.17 0.18 0.19 0.18 0.17 0.16 0.17 0.13 0.12 0.13 0.12 0.10 0.11 0.14 0.16 0.17 0.16 0.15 0.14 0.14 0.14 0.13 0.13 0.13 0.13 0.13 0.14 0.14 0.14 0.14 0.13 0.13 0.11 0.11 0.11 0.11 0.11 0.12 0.13 0.14 0.14 0.15 0.15 0.17 0.18 0.19 0.19 0.18 0.18 0.17 0.16 0.17 0.17 0.18 0.20 0.19 0.18 0.18 0.18 0.19 0.20 0.20 0.20 0.21 0.22 0.24 0.26 0.27 0.28 0.28 0.29 0.29 0.30
0.16 0.13 0.12 0.09 0.09 0.08 0.08 0.08 0.09 0.10 0.12 0.13 0.16 0.17 0.18 0.18 0.17 0.15 0.12 0.12 0.11 0.12 0.13 0.12 0.11 0.13 0.14 0.16 0.15 0.15 0.14 0.14 0.13 0.13 0.13 0.13 0.13 0.13 0.13 0.13 0.13 0.13 0.13 0.13 0.12 0.11 0.10 0.10 0.11 0.11 0.12 0.13 0.14 0.14 0.15 0.16 0.17 0.18 0.19 0.18 0.18 0.17 0.16 0.16 0.17 0.18 0.19 0.18 0.17 0.17 0.18 0.18 0.19 0.20 0.21 0.22 0.23 0.24 0.25 0.26 0.27 0.28 0.29 0.29 0.29 0.30
0.15 0.15 0.13 0.12 0.11 0.10 0.10 0.11 0.12 0.13 0.13 0.12 0.13 0.16 0.18 0.19 0.19 0.17 0.16 0.13 0.11 0.12 0.12 0.14 0.14 0.13 0.13 0.14 0.14 0.14 0.14 0.13 0.13 0.13 0.13 0.13 0.13 0.13 0.14 0.14 0.14 0.15 0.14 0.12 0.11 0.10 0.10 0.10 0.10 0.11 0.12 0.13 0.13 0.14 0.15 0.16 0.17 0.18 0.18 0.18 0.17 0.17 0.16 0.16 0.17 0.18 0.18 0.17 0.17 0.17 0.18 0.19 0.19 0.19 0.20 0.21 0.22 0.23 0.24 0.25 0.26 0.27 0.28 0.29 0.29 0.30
0.16 0.13 0.14 0.14 0.14 0.13 0.13 0.12 0.13 0.14 0.13 0.13 0.14 0.15 0.18 0.18 0.18 0.16 0.14 0.12 0.14 0.14 0.11 0.13 0.14 0.13 0.13 0.13 0.13 0.13 0.13 0.13 0.13 0.13 0.13 0.13 0.13 0.13 0.13 0.13 0.14 0.14 0.12 0.10 0.09 0.09 0.10 0.10 0.11 0.12 0.12 0.12 0.13 0.14 0.15 0.16 0.17 0.18 0.18 0.18 0.17 0.16 0.16 0.16 0.16 0.17 0.17 0.16 0.16 0.17 0.18 0.18 0.19 0.19 0.20 0.21 0.22 0.22 0.22 0.23 0.24 0.26 0.27 0.27 0.28 0.28
0.14 0.12 0.16 0.15 0.14 0.13 0.13 0.13 0.14 0.14 0.15 0.15 0.15 0.15 0.15 0.17 0.17 0.15 0.14 0.15 0.16 0.14 0.12 0.13 0.14 0.13 0.13 0.13 0.13 0.14 0.14 0.14 0.13 0.13 0.14 0.13 0.13 0.13 0.14 0.14 0.14 0.12 0.10 0.09 0.09 0.10 0.10 0.10 0.11 0.11 0.12 0.13 0.13 0.14 0.15 0.16 0.17 0.17 0.17 0.17 0.16 0.16 0.16 0.16 0.17 0.16 0.16 0.16 0.16 0.17 0.17 0.18 0.19 0.19 0.20 0.21 0.21 0.21 0.21 0.22 0.23 0.24 0.24 0.24 0.25 0.26
0.15 0.13 0.16 0.15 0.13 0.13 0.13 0.15 0.16 0.15 0.14 0.14 0.14 0.15 0.16 0.17 0.17 0.17 0.16 0.17 0.17 0.15 0.15 0.14 0.13 0.13 0.13 0.13 0.14 0.14 0.15 0.14 0.14 0.13 0.13 0.13 0.13 0.13 0.14 0.13 0.12 0.10 0.09 0.09 0.09 0.10 0.10 0.10 0.11 0.11 0.12 0.12 0.13 0.14 0.14 0.15 0.16 0.17 0.16 0.16 0.16 0.16 0.16 0.16 0.16 0.16 0.16 0.16 0.16 0.16 0.17 0.17 0.18 0.19 0.20 0.20 0.20 0.21 0.21 0.22 0.23 0.23 0.23 0.23 0.24 0.25
0.15 0.12 0.15 0.14 0.13 0.13 0.13 0.15 0.15 0.13 0.14 0.14 0.15 0.15 0.16 0.17 0.17 0.18 0.17 0.16 0.15 0.13 0.13 0.13 0.13 0.12 0.14 0.15 0.15 0.15 0.15 0.14 0.14 0.13 0.13 0.13 0.14 0.14 0.12 0.11 0.10 0.09 0.09 0.09 0.10 0.10 0.10 0.10 0.11 0.11 0.11 0.11 0.12 0.13 0.14 0.15 0.16 0.16 0.16 0.15 0.15 0.16 0.16 0.16 0.16 0.16 0.16 0.16 0.16 0.16 0.17 0.17 0.18 0.18 0.19 0.19 0.20 0.20 0.21 0.22 0.23 0.23 0.23 0.23 0.23 0.23
0.17 0.14 0.16 0.15 0.13 0.12 0.13 0.13 0.13 0.14 0.15 0.15 0.15 0.16 0.16 0.16 0.15 0.15 0.14 0.15 0.13 0.12 0.13 0.13 0.12 0.12 0.14 0.15 0.15 0.15 0.14 0.13 0.12 0.12 0.12 0.12 0.14 0.14 0.12 0.10 0.09 0.09 0.09 0.10 0.10 0.10 0.10 0.10 0.10 0.10 0.11 0.11 0.12 0.13 0.14 0.15 0.15 0.15 0.15 0.15 0.16 0.15 0.16 0.16 0.15 0.16 0.16 0.16 0.16 0.16 0.17 0.17 0.18 0.18 0.18 0.19 0.19 0.20 0.21 0.22 0.22 0.22 0.22 0.22 0.21 0.22
0.16 0.15 0.14 0.14 0.12 0.12 0.13 0.14 0.14 0.14 0.14 0.13 0.15 0.16 0.17 0.17 0.16 0.15 0.15 0.15 0.14 0.14 0.13 0.12 0.12 0.14 0.14 0.16 0.14 0.13 0.13 0.13 0.13 0.13 0.13 0.13 0.12 0.11 0.10 0.10 0.10 0.10 0.10 0.10 0.10 0.11 0.10 0.10 0.10 0.10 0.10 0.10 0.12 0.13 0.13 0.14 0.15 0.14 0.15 0.15 0.15 0.16 0.16 0.15 0.15 0.15 0.15 0.16 0.16 0.16 0.17 0.17 0.17 0.18 0.18 0.18 0.19 0.20 0.21 0.21 0.21 0.21 0.20 0.20 0.21 0.22
0.18 0.16 0.15 0.16 0.12 0.12 0.13 0.14 0.14 0.13 0.11 0.12 0.17 0.19 0.18 0.15 0.15 0.14 0.14 0.14 0.15 0.15 0.14 0.14 0.14 0.15 0.15 0.15 0.14 0.13 0.13 0.13 0.13 0.14 0.14 0.14 0.13 0.11 0.11 0.11 0.10 0.10 0.10 0.10 0.10 0.10 0.10 0.11 0.10 0.10 0.10 0.11 0.12 0.13 0.13 0.14 0.14 0.15 0.15 0.15 0.15 0.15 0.15 0.15 0.15 0.15 0.15 0.15 0.16 0.16 0.17 0.17 0.17 0.17 0.18 0.18 0.19 0.20 0.20 0.20 0.20 0.20 0.20 0.20 0.21 0.21
0.17 0.17 0.15 0.16 0.13 0.13 0.14 0.14 0.12 0.11 0.11 0.17 0.19 0.19 0.18 0.17 0.16 0.15 0.14 0.15 0.15 0.15 0.15 0.15 0.15 0.15 0.15 0.15 0.14 0.15 0.14 0.14 0.14 0.14 0.13 0.13 0.11 0.11 0.11 0.10 0.10 0.10 0.10 0.10 0.10 0.10 0.10 0.10 0.10 0.10 0.10 0.11 0.11 0.12 0.12 0.13 0.14 0.15 0.15 0.15 0.15 0.14 0.15 0.14 0.14 0.15 0.15 0.15 0.16 0.16 0.16 0.16 0.17 0.17 0.18 0.18 0.19 0.20 0.20 0.19 0.19 0.19 0.20 0.20 0.20 0.21
0.16 0.15 0.16 0.15 0.15 0.14 0.13 0.13 0.11 0.11 0.15 0.18 0.18 0.18 0.18 0.18 0.16 0.15 0.14 0.15 0.15 0.15 0.15 0.15 0.15 0.16 0.15 0.15 0.15 0.15 0.15 0.15 0.14 0.14 0.13 0.12 0.12 0.11 0.10 0.09 0.10 0.10 0.10 0.10 0.10 0.10 0.10 0.10 0.10 0.10 0.10 0.11 0.11 0.11 0.12 0.13 0.13 0.15 0.15 0.15 0.14 0.14 0.14 0.14 0.14 0.14 0.15 0.15 0.15 0.15 0.16 0.16 0.17 0.17 0.18 0.18 0.19 0.19 0.19 0.19 0.19 0.19 0.20 0.20 0.21 0.22
0.19 0.17 0.16 0.14 0.15 0.12 0.13 0.13 0.13 0.15 0.14 0.17 0.17 0.17 0.17 0.15 0.15 0.14 0.12 0.14 0.15 0.16 0.16 0.15 0.15 0.15 0.15 0.15 0.15 0.15 0.15 0.14 0.13 0.12 0.13 0.13 0.12 0.11 0.10 0.10 0.10 0.10 0.10 0.11 0.11 0.11 0.11 0.11 0.11 0.11 0.10 0.10 0.11 0.11 0.11 0.12 0.14 0.14 0.14 0.14 0.14 0.14 0.14 0.14 0.14 0.14 0.14 0.15 0.15 0.16 0.16 0.16 0.17 0.17 0.18 0.18 0.18 0.18 0.18 0.18 0.18 0.19 0.20 0.20 0.21 0.21
0.20 0.17 0.17 0.15 0.14 0.16 0.14 0.13 0.13 0.12 0.11 0.14 0.15 0.17 0.17 0.17 0.17 0.16 0.15 0.13 0.16 0.17 0.17 0.15 0.15 0.15 0.15 0.16 0.15 0.15 0.14 0.12 0.10 0.11 0.13 0.13 0.12 0.11 0.11 0.11 0.10 0.10 0.10 0.11 0.11 0.11 0.11 0.11 0.11 0.11 0.10 0.10 0.10 0.11 0.11 0.12 0.13 0.14 0.14 0.14 0.14 0.14 0.14 0.14 0.14 0.14 0.14 0.15 0.15 0.16 0.16 0.16 0.17 0.17 0.17 0.18 0.18 0.18 0.18 0.18 0.19 0.19 0.20 0.20 0.20 0.21
0.21 0.20 0.19 0.16 0.15 0.16 0.14 0.13 0.12 0.11 0.12 0.15 0.15 0.17 0.18 0.18 0.17 0.16 0.14 0.12 0.16 0.17 0.16 0.16 0.16 0.16 0.16 0.15 0.15 0.14 0.13 0.10 0.10 0.11 0.12 0.12 0.12 0.11 0.10 0.10 0.11 0.11 0.11 0.11 0.11 0.11 0.11 0.11 0.10 0.10 0.10 0.10 0.10 0.10 0.11 0.12 0.13 0.13 0.14 0.14 0.14 0.14 0.13 0.13 0.14 0.14 0.14 0.15 0.15 0.16 0.16 0.16 0.17 0.17 0.18 0.18 0.19 0.18 0.18 0.18 0.19 0.20 0.21 0.21 0.21 0.21
0.20 0.20 0.19 0.16 0.16 0.15 0.14 0.13 0.13 0.14 0.13 0.15 0.16 0.17 0.18 0.18 0.18 0.15 0.11 0.11 0.15 0.16 0.17 0.17 0.16 0.15 0.16 0.16 0.15 0.14 0.12 0.10 0.10 0.12 0.13 0.12 0.12 0.11 0.10 0.10 0.10 0.10 0.11 0.11 0.11 0.12 0.11 0.11 0.10 0.10 0.09 0.09 0.10 0.11 0.11 0.12 0.12 0.13 0.14 0.14 0.14 0.13 0.13 0.13 0.14 0.14 0.14 0.15 0.15 0.16 0.16 0.16 0.17 0.17 0.18 0.18 0.19 0.18 0.18 0.19 0.19 0.20 0.20 0.21 0.22 0.22
0.18 0.18 0.19 0.16 0.16 0.16 0.15 0.14 0.14 0.14 0.16 0.17 0.17 0.18 0.18 0.19 0.17 0.12 0.10 0.13 0.16 0.16 0.17 0.17 0.17 0.16 0.16 0.15 0.15 0.13 0.13 0.14 0.13 0.13 0.13 0.13 0.11 0.10 0.11 0.11 0.11 0.11 0.11 0.11 0.11 0.12 0.11 0.10 0.10 0.09 0.09 0.10 0.10 0.11 0.11 0.11 0.12 0.13 0.13 0.13 0.13 0.13 0.13 0.14 0.14 0.14 0.14 0.15 0.15 0.15 0.16 0.16 0.17 0.17 0.18 0.19 0.19 0.18 0.18 0.19 0.19 0.20 0.20 0.20 0.22 0.23
0.18 0.18 0.18 0.18 0.16 0.16 0.15 0.14 0.13 0.14 0.16 0.17 0.17 0.19 0.19 0.17 0.12 0.12 0.15 0.17 0.16 0.17 0.18 0.18 0.17 0.17 0.16 0.15 0.15 0.14 0.14 0.15 0.14 0.13 0.12 0.11 0.11 0.10 0.10 0.10 0.10 0.11 0.11 0.11 0.12 0.11 0.11 0.10 0.10 0.09 0.09 0.09 0.10 0.10 0.11 0.11 0.11 0.12 0.13 0.13 0.13 0.13 0.14 0.14 0.14 0.14 0.15 0.15 0.15 0.15 0.16 0.16 0.17 0.18 0.18 0.19 0.19 0.18 0.18 0.20 0.20 0.20 0.20 0.21 0.22 0.23
0.18 0.17 0.16 0.16 0.17 0.17 0.15 0.13 0.13 0.11 0.15 0.18 0.19 0.19 0.18 0.14 0.14 0.16 0.16 0.17 0.17 0.18 0.18 0.18 0.17 0.16 0.16 0.15 0.15 0.15 0.15 0.14 0.14 0.13 0.12 0.11 0.11 0.10 0.10 0.10 0.10 0.10 0.11 0.11 0.11 0.11 0.11 0.10 0.09 0.09 0.08 0.09 0.09 0.10 0.10 0.11 0.11 0.12 0.13 0.13 0.13 0.13 0.14 0.14 0.14 0.14 0.14 0.15 0.15 0.15 0.16 0.17 0.17 0.18 0.18 0.19 0.18 0.18 0.18 0.20 0.20 0.20 0.21 0.21 0.22 0.23
0.22 0.17 0.17 0.17 0.18 0.15 0.14 0.13 0.13 0.15 0.17 0.20 0.19 0.16 0.17 0.17 0.17 0.17 0.17 0.16 0.18 0.18 0.18 0.17 0.17 0.17 0.17 0.16 0.15 0.15 0.14 0.14 0.13 0.12 0.11 0.11 0.11 0.10 0.10 0.10 0.10 0.11 0.11 0.11 0.11 0.11 0.10 0.10 0.09 0.08 0.07 0.08 0.09 0.10 0.11 0.11 0.11 0.12 0.13 0.13 0.13 0.14 0.14 0.14 0.14 0.14 0.14 0.15 0.15 0.15 0.16 0.17 0.17 0.18 0.18 0.18 0.18 0.18 0.19 0.19 0.19 0.20 0.21 0.22 0.22 0.23
0.22 0.19 0.19 0.17 0.19 0.17 0.16 0.16 0.17 0.19 0.20 0.20 0.20 0.19 0.19 0.19 0.19 0.19 0.18 0.18 0.17 0.17 0.18 0.18 0.17 0.17 0.17 0.16 0.15 0.15 0.13 0.13 0.12 0.12 0.11 0.11 0.10 0.10 0.10 0.10 0.11 0.11 0.11 0.11 0.11 0.10 0.10 0.09 0.08 0.07 0.07 0.08 0.09 0.10 0.10 0.11 0.11 0.11 0.12 0.13 0.14 0.14 0.14 0.14 0.14 0.14 0.14 0.14 0.15 0.15 0.16 0.17 0.17 0.18 0.18 0.18 0.18 0.18 0.19 0.19 0.19 0.19 0.21 0.22 0.23 0.23
0.23 0.23 0.23 0.20 0.19 0.20 0.20 0.19 0.20 0.20 0.20 0.20 0.21 0.20 0.20 0.20 0.20 0.20 0.19 0.18 0.18 0.18 0.19 0.18 0.18 0.17 0.17 0.17 0.15 0.14 0.13 0.12 0.11 0.11 0.11 0.11 0.10 0.10 0.11 0.11 0.11 0.11 0.11 0.11 0.10 0.10 0.09 0.09 0.08 0.07 0.07 0.08 0.09 0.10 0.10 0.11 0.11 0.11 0.12 0.14 0.14 0.14 0.14 0.14 0.14 0.14 0.14 0.15 0.15 0.16 0.16 0.17 0.17 0.18 0.18 0.18 0.18 0.18 0.19 0.18 0.19 0.19 0.20 0.22 0.22 0.23
0.23 0.23 0.22 0.19 0.20 0.19 0.16 0.19 0.19 0.20 0.20 0.21 0.21 0.21 0.21 0.21 0.20 0.19 0.18 0.18 0.18 0.19 0.19 0.19 0.18 0.18 0.17 0.17 0.15 0.14 0.13 0.12 0.11 0.11 0.11 0.10 0.10 0.10 0.10 0.11 0.11 0.11 0.10 0.10 0.10 0.09 0.08 0.07 0.07 0.07 0.07 0.07 0.09 0.09 0.10 0.11 0.11 0.12 0.13 0.14 0.14 0.14 0.14 0.14 0.14 0.14 0.14 0.14 0.15 0.16 0.16 0.16 0.17 0.18 0.18 0.18 0.18 0.19 0.19 0.19 0.19 0.20 0.20 0.21 0.22 0.23
0.20 0.23 0.21 0.20 0.20 0.18 0.17 0.19 0.20 0.21 0.22 0.22 0.21 0.20 0.20 0.20 0.19 0.19 0.18 0.18 0.19 0.19 0.20 0.19 0.18 0.17 0.17 0.16 0.15 0.14 0.12 0.12 0.11 0.11 0.10 0.10 0.10 0.10 0.10 0.10 0.10 0.10 0.10 0.10 0.10 0.09 0.08 0.07 0.07 0.06 0.07 0.07 0.09 0.09 0.10 0.11 0.11 0.12 0.13 0.14 0.14 0.14 0.14 0.14 0.14 0.14 0.14 0.14 0.15 0.15 0.16 0.16 0.17 0.18 0.18 0.18 0.18 0.18 0.19 0.19 0.20 0.20 0.21 0.21 0.22 0.23
0.23 0.23 0.19 0.21 0.19 0.19 0.20 0.21 0.21 0.21 0.21 0.22 0.22 0.21 0.21 0.20 0.19 0.19 0.19 0.19 0.19 0.20 0.19 0.19 0.18 0.18 0.17 0.16 0.15 0.13 0.12 0.11 0.11 0.11 0.10 0.10 0.10 0.10 0.11 0.11 0.10 0.10 0.10 0.09 0.09 0.08 0.07 0.07 0.07 0.07 0.07 0.07 0.09 0.09 0.10 0.11 0.11 0.12 0.13 0.13 0.14 0.14 0.13 0.13 0.14 0.14 0.14 0.14 0.15 0.15 0.16 0.16 0.17 0.17 0.17 0.18 0.18 0.19 0.19 0.19 0.20 0.21 0.22 0.24 0.25 0.26
0.23 0.21 0.22 0.21 0.18 0.18 0.18 0.20 0.21 0.18 0.18 0.20 0.21 0.21 0.21 0.20 0.19 0.18 0.19 0.19 0.19 0.18 0.18 0.18 0.18 0.18 0.16 0.15 0.14 0.13 0.11 0.11 0.11 0.11 0.10 0.11 0.11 0.11 0.10 0.10 0.10 0.10 0.09 0.09 0.08 0.08 0.07 0.07 0.06 0.07 0.07 0.08 0.09 0.09 0.10 0.10 0.11 0.12 0.13 0.14 0.13 0.13 0.13 0.13 0.14 0.14 0.14 0.14 0.15 0.15 0.16 0.16 0.17 0.17 0.17 0.17 0.17 0.18 0.20 0.21 0.21 0.22 0.22 0.23 0.26 0.28
0.23 0.22 0.21 0.19 0.18 0.19 0.21 0.22 0.22 0.22 0.21 0.21 0.22 0.21 0.21 0.20 0.19 0.19 0.19 0.18 0.18 0.18 0.19 0.18 0.17 0.16 0.15 0.14 0.14 0.13 0.12 0.12 0.11 0.12 0.11 0.11 0.10 0.10 0.10 0.10 0.10 0.09 0.08 0.08 0.08 0.07 0.07 0.07 0.07 0.07 0.07 0.08 0.09 0.09 0.10 0.10 0.11 0.11 0.13 0.13 0.13 0.13 0.13 0.14 0.13 0.13 0.14 0.14 0.14 0.15 0.15 0.16 0.16 0.17 0.17 0.17 0.17 0.18 0.18 0.19 0.22 0.23 0.24 0.25 0.27 0.28
Wind_Speed
14 13 14 14 15 16 15 15 15 15 16 17 17 17 19 20 21 24 24 21 21 23 23 24 24 22 21 21 20 21 23 24 25 25 26 28 29 29 30 32 34 35 37 38 40 43 45 47 48 50 50 52 54 55 56 57 57 58 58 58 58 56 56 55 55 54 53 53 53 53 54 54 55 55 56 55 55 55 55 55 55 55 54 54 54 53
15 14 14 15 15 16 16 15 15 16 16 17 17 18 20 21 23 26 24 22 22 23 24 25 25 23 22 21 21 23 25 25 26 26 27 29 29 30 32 34 36 37 38 40 43 46 47 49 50 51 52 55 57 58 58 59 59 59 58 57 56 55 54 54 53 52 52 52 53 53 54 54 55 55 55 56 56 56 57 57 57 57 57 57 57 56
14 14 14 15 15 16 15 15 16 16 16 17 18 19 20 23 25 25 23 23 23 24 26 27 26 25 23 22 23 25 26 26 27 27 28 29 30 32 33 35 37 39 41 43 46 48 49 50 52 54 56 58 59 59 60 59 59 58 57 56 55 54 53 53 52 52 52 53 54 54 54 54 54 54 55 55 56 56 56 57 57 58 58 58 58 58
14 14 15 15 15 16 16 16 17 18 17 16 18 19 21 23 26 26 25 26 26 26 28 28 27 26 23 22 25 27 27 26 26 27 29 30 31 33 35 37 39 41 43 45 47 49 51 53 55 57 59 60 60 60 59 58 58 57 55 54 54 53 52 52 52 52 53 54 54 54 53 54 54 54 54 55 55 56 56 56 56 57 57 57 56 56
13 14 15 16 15 16 17 17 18 19 18 17 17 19 22 26 27 27 28 29 28 27 27 26 26 26 22 23 27 28 27 26 27 27 28 30 32 34 37 39 41 43 45 47 49 51 53 56 58 59 61 61 61 59 57 57 56 55 54 54 54 53 53 52 53 53 53 53 53 52 52 53 53 54 54 54 55 55 55 56 56 56 57 58 57 56
13 13 15 16 16 17 17 17 18 19 20 18 18 21 25 28 29 28 28 29 28 27 25 23 25 24 22 24 28 28 28 28 28 28 29 31 34 36 39 41 43 44 46 48 51 53 56 58 60 62 63 61 58 56 56 56 55 55 54 54 54 54 53 52 52 51 51 50 50 50 51 51 52 53 53 54 54 54 54 55 55 56 56 57 58 59
14 14 15 16 17 17 17 17 17 19 20 19 20 24 27 29 29 29 28 27 27 27 26 23 23 25 26 27 28 28 29 28 28 29 31 33 35 38 41 42 44 46 48 50 52 56 58 59 61 63 62 58 56 56 56 56 55 55 55 55 54 53 52 51 50 49 48 48 48 48 49 50 51 52 52 52 52 53 53 53 53 54 54 55 56 58
14 15 16 17 18 17 18 19 19 19 20 21 23 27 29 30 29 28 28 26 26 28 27 22 23 26 28 30 29 28 27 27 29 30 31 33 37 40 42 43 45 47 49 52 55 57 59 61 63 62 59 57 57 57 56 56 56 56 55 54 53 52 50 49 47 47 46 46 47 47 48 49 49 49 49 49 49 49 50 50 51 51 52 52 53 55
14 15 16 18 18 18 20 20 21 21 21 23 25 27 30 30 29 28 27 25 25 27 24 21 24 27 30 32 28 26 27 27 29 30 32 35 39 41 43 44 47 49 51 53 56 58 60 62 62 59 58 57 57 56 56 56 56 55 54 52 51 50 48 47 46 47 47 47 47 47 47 47 46 45 45 45 46 46 46 47 47 48 48 49 50 52
15 16 16 18 19 20 21 22 22 21 21 24 26 28 30 29 28 27 25 25 25 24 21 23 28 28 32 34 27 25 28 28 29 31 34 37 40 42 44 46 48 50 52 54 57 60 61 60 59 58 57 57 56 56 56 56 54 53 51 50 50 49 47 46 46 46 46 45 45 44 44 44 43 42 42 43 43 42 42 43 43 43 44 44 46 47
17 17 17 18 19 20 22 23 22 21 23 26 27 30 31 29 28 25 23 24 23 22 22 27 31 31 31 29 25 26 29 28 32 35 37 39 41 44 45 47 49 51 53 57 59 60 60 59 59 58 57 57 56 56 55 55 52 51 50 50 49 48 47 46 45 44 43 42 42 42 42 42 42 42 41 41 41 40 40 40 40 40 40 41 42 43
18 18 18 18 19 21 23 23 22 22 24 25 27 31 31 30 28 24 24 25 22 23 26 30 35 33 28 26 27 30 31 32 35 38 39 40 42 44 45 47 51 53 56 58 58 59 59 59 59 58 57 57 57 56 55 53 51 51 50 49 48 46 44 43 42 41 41 40 40 40 40 41 41 41 40 40 39 39 38 38 38 38 38 39 39 40
18 18 18 18 19 22 24 25 24 23 25 25 27 30 30 29 28 26 26 26 25 26 28 32 36 31 26 28 30 32 33 35 37 37 38 39 42 45 47 50 53 55 56 57 57 58 58 58 58 57 57 57 56 55 53 52 51 50 49 48 47 44 42 41 41 40 40 39 38 38 38 38 38 38 37 37 37 36 36 37 37 37 37 37 37 37
19 18 19 20 21 23 25 26 25 25 26 26 27 29 28 27 27 27 27 27 28 30 32 34 33 28 28 30 31 33 35 35 34 35 38 41 45 48 51 53 54 55 56 56 57 59 59 58 58 57 57 56 55 54 52 51 49 49 48 47 45 43 42 41 40 39 38 37 36 35 34 34 34 34 35 35 36 35 35 35 35 35 35 35 36 36
20 19 20 21 22 23 26 25 24 26 25 25 27 26 27 27 26 26 27 27 30 33 36 34 28 26 30 32 33 35 34 33 34 37 41 45 48 51 53 54 54 55 56 57 59 60 59 59 58 57 57 55 54 53 51 49 49 48 48 45 43 42 41 40 38 37 36 35 35 34 34 33 33 33 33 34 33 34 34 34 34 33 33 33 34 34
20 20 20 22 22 23 25 24 24 25 24 25 27 26 27 28 25 26 28 29 31 33 33 31 28 29 32 33 34 33 33 36 40 42 45 48 51 53 54 54 55 56 57 57 59 60 60 59 58 56 56 54 53 52 50 49 49 48 46 44 42 41 40 38 37 36 36 36 36 37 36 36 35 34 34 33 32 32 32 32 32 32 31 31 32 32
21 21 20 22 23 24 25 25 25 25 24 26 27 27 29 28 25 27 30 30 31 31 31 31 32 34 35 35 32 31 36 41 42 44 48 51 53 54 53 55 57 58 57 58 60 60 59 58 57 56 55 54 52 51 50 49 48 47 45 43 41 41 38 37 38 38 38 37 38 38 37 36 36 35 34 33 32 31 30 30 30 30 30 30 30 30
21 23 22 21 22 24 25 25 25 26 25 27 27 28 30 28 25 26 28 30 30 30 31 34 35 36 36 34 32 35 41 42 42 46 51 53 54 53 54 57 58 58 58 59 60 60 59 58 56 55 54 53 51 51 50 49 47 44 42 41 41 39 37 37 40 40 38 37 37 36 34 33 33 33 32 32 32 31 30 30 30 29 29 29 29 30
22 23 23 21 22 25 25 25 26 27 28 27 26 28 29 28 28 28 28 29 30 30 32 36 38 36 33 33 36 40 41 41 45 50 52 53 53 54 57 59 59 59 59 59 60 60 59 57 56 54 53 53 52 52 50 48 45 42 41 40 39 38 38 39 41 40 37 36 33 31 30 30 30 30 30 30 30 31 31 30 29 29 29 29 29 29
22 22 22 22 24 25 25 25 25 27 29 28 27 29 29 27 28 29 28 28 28 30 33 38 40 35 32 35 40 40 40 43 48 51 52 53 53 56 58 59 59 59 59 60 61 60 59 57 55 54 54 54 53 51 49 46 43 41 40 40 38 38 39 40 40 39 37 33 30 28 29 29 29 28 28 28 29 30 31 31 31 31 31 30 30 30
23 22 23 25 27 26 25 25 26 27 28 28 28 29 30 29 29 29 29 27 27 29 32 36 39 36 35 38 39 39 42 46 49 51 52 52 55 58 59 59 59 59 60 61 61 60 59 57 55 54 54 54 52 50 47 43 41 40 39 38 38 38 39 40 39 38 35 31 28 28 28 29 29 28 28 28 29 29 30 30 30 31 30 30 30 30
23 23 24 27 28 27 25 26 28 28 27 28 29 29 29 29 30 30 29 27 27 29 31 34 39 41 39 37 37 40 45 48 51 52 51 53 58 60 59 59 60 60 61 61 61 59 57 55 55 55 55 53 50 48 45 42 40 39 39 38 38 38 39 39 38 35 32 30 28 27 27 29 29 28 28 28 28 28 28 28 28 28 29 29 29 29
24 24 25 27 27 27 26 27 28 28 28 29 29 29 29 29 29 29 29 30 31 32 34 34 37 42 40 37 39 44 47 50 52 51 51 56 60 60 60 61 60 60 61 61 60 58 56 55 55 55 54 52 49 46 43 41 39 39 38 37 38 38 39 38 36 33 30 29 28 27 27 29 29 28 27 27 27 27 27 27 27 27 27 27 27 27
24 24 26 28 27 26 27 27 28 29 29 30 31 31 30 30 30 29 29 31 33 33 35 35 37 41 42 41 44 47 49 53 52 50 54 58 59 60 61 61 60 61 61 60 59 57 56 56 55 54 52 50 47 44 42 40 39 38 38 37 37 38 38 37 34 32 30 28 27 27 28 28 28 27 26 26 26 26 26 26 26 26 26 26 27 27
24 24 26 29 28 28 28 28 29 31 31 31 31 32 32 31 31 31 30 31 32 34 35 35 38 44 46 46 48 49 51 52 51 52 57 59 59 60 61 61 61 62 61 60 59 57 56 55 54 52 51 48 46 43 41 40 39 38 38 37 38 38 38 36 33 31 29 27 27 28 28 28 27 26 25 25 25 25 25 26 25 25 25 25 26 27
25 25 26 26 26 27 29 29 31 33 33 32 31 31 32 31 30 31 31 30 33 37 38 36 40 48 51 51 51 51 52 51 51 56 59 58 59 60 61 61 62 62 61 59 58 57 56 54 53 52 49 46 45 43 41 39 39 39 38 37 37 37 37 34 31 29 28 27 28 28 27 26 26 26 25 24 24 24 25 25 24 24 24 24 25 25
25 26 26 26 25 26 29 32 33 33 33 34 33 32 31 31 31 31 30 31 35 40 41 39 42 50 54 54 54 53 52 51 53 58 60 59 60 61 61 62 62 61 59 58 58 57 56 54 52 50 48 46 44 42 40 39 40 39 38 37 38 37 35 33 30 29 27 27 28 27 26 25 25 25 25 24 24 24 24 23 23 23 23 23 23 24
26 27 27 27 27 28 31 34 34 33 33 35 35 33 31 31 31 30 30 34 38 39 42 44 46 49 53 55 55 54 51 52 56 59 60 60 61 61 62 62 61 59 59 58 58 57 55 53 51 49 48 46 43 41 40 39 40 39 38 38 38 37 34 32 30 29 27 27 27 26 25 25 25 25 25 24 24 24 24 23 23 22 22 22 22 23
27 28 28 28 29 31 34 35 33 33 34 35 36 35 32 31 30 31 32 35 38 38 42 48 50 51 53 54 54 52 52 55 58 59 60 61 62 62 62 61 60 59 59 59 58 56 54 52 50 49 47 45 42 41 40 40 39 38 38 39 38 36 33 31 29 28 28 27 27 26 25 25 25 24 24 24 24 24 24 24 24 23 23 23 23 23
27 28 28 29 31 33 35 34 32 33 35 36 36 35 33 31 31 32 34 37 39 41 44 49 51 51 51 51 51 52 55 57 58 59 59 61 62 62 61 60 60 60 60 59 57 55 54 52 50 49 47 44 42 41 41 40 39 38 39 39 38 35 33 31 29 28 28 27 27 26 25 25 25 24 24 24 24 24 24 23 24 24 23 23 23 23
27 29 29 30 32 34 34 32 33 35 37 37 36 34 33 32 32 33 35 38 41 45 48 49 50 50 49 48 50 54 57 58 58 59 61 61 62 62 61 60 60 60 59 58 56 55 53 52 50 48 46 44 42 41 40 39 39 40 40 39 36 34 32 30 29 28 27 27 26 26 26 25 25 24 24 24 24 24 23 23 23 23 22 22 23 23
28 29 30 31 33 34 34 34 37 39 37 35 35 34 32 33 34 34 36 38 42 47 50 50 49 48 48 50 53 55 57 58 59 60 61 61 61 60 60 60 60 59 58 57 55 54 53 52 49 48 46 43 42 41 39 39 39 40 39 37 35 33 31 30 29 28 27 27 26 26 25 24 24 24 24 24 24 24 23 22 22 22 21 21 21 21
29 30 32 32 33 34 35 36 39 39 36 34 34 34 33 34 36 37 38 41 44 47 48 47 47 48 50 52 54 57 58 58 59 59 60 60 59 58 59 59 59 58 57 56 55 54 53 51 49 48 46 43 41 40 39 39 40 39 38 37 35 33 31 29 28 28 27 27 26 25 25 24 24 24 24 24 24 23 22 22 22 21 20 20 19 19
29 30 32 32 32 35 37 39 39 37 34 33 35 35 35 36 37 40 41 44 47 47 46 46 48 49 51 52 55 57 58 58 58 59 59 58 57 58 59 58 58 58 57 56 55 54 53 51 50 48 46 43 40 39 38 39 39 38 38 36 34 32 31 29 28 28 27 26 26 25 24 24 24 24 24 23 23 23 22 22 21 20 19 18 18 18
30 31 32 32 33 35 37 38 37 36 35 35 36 36 36 36 38 42 45 46 48 48 47 47 48 49 52 54 55 57 57 58 59 58 57 56 56 58 59 58 58 57 57 56 55 54 53 52 50 49 46 42 40 39 38 38 38 38 37 36 34 32 31 30 29 28 27 26 26 25 24 24 24 23 23 23 22 22 22 22 21 19 18 17 16 17
31 32 33 33 33 35 36 36 35 36 37 36 35 36 37 38 40 45 49 49 48 47 46 47 49 51 54 56 56 56 57 58 58 56 55 56 57 58 58 58 57 57 56 56 56 55 54 52 51 48 45 42 40 39 38 38 38 37 37 36 34 32 30 30 29 28 27 27 26 25 24 24 23 23 22 22 21 21 21 21 19 18 16 16 16 17
31 32 33 34 33 33 36 36 37 38 37 34 35 37 38 40 43 46 50 51 47 44 45 48 51 53 56 57 57 57 58 58 57 54 54 56 58 58 57 57 57 56 56 56 56 55 53 52 50 47 45 42 39 38 38 37 37 37 37 36 34 32 30 29 28 27 27 27 26 26 25 24 23 23 22 21 21 21 20 19 18 16 15 15 16 17
32 33 33 33 33 34 36 37 37 38 37 35 36 38 40 42 45 46 50 50 45 44 48 51 53 56 57 58 58 59 58 56 55 55 56 57 58 57 57 56 57 57 57 57 56 55 53 52 49 47 44 41 39 38 38 37 37 37 37 36 33 31 30 29 28 28 28 27 27 26 25 24 23 22 22 21 20 20 19 17 16 15 15 15 16 17
34 34 33 33 34 35 35 35 35 36 36 36 38 41 43 45 47 47 47 45 44 48 53 54 55 57 58 58 59 58 56 54 54 56 58 59 58 57 57 56 57 57 57 56 56 55 54 52 49 46 44 41 39 38 37 36 37 37 36 35 33 31 30 29 28 28 28 28 27 26 25 24 23 22 21 20 20 19 17 16 15 14 15 15 15 15
34 34 34 33 34 35 35 35 35 35 36 38 40 44 46 48 48 47 45 45 49 54 55 55 56 58 58 58 58 56 54 54 55 57 59 59 58 58 57 56 57 57 57 56 56 54 53 51 49 46 43 40 38 37 36 36 36 36 36 35 33 31 30 29 29 29 29 28 27 25 23 22 21 20 19 19 18 17 16 15 14 14 15 14 14 14
34 34 34 34 35 36 35 36 37 37 37 39 42 46 48 49 48 46 46 50 54 56 56 56 58 58 58 58 57 55 55 56 57 59 60 59 58 58 57 57 57 56 56 56 55 54 52 50 48 46 43 39 37 36 35 35 35 36 35 34 33 31 30 29 29 29 28 26 24 23 21 19 18 18 18 17 17 16 14 14 14 15 14 13 13 14
35 35 35 35 35 36 35 36 38 39 38 40 45 47 47 48 48 48 50 54 56 57 57 58 58 58 58 58 57 56 57 58 59 59 59 58 58 57 57 57 57 56 56 55 54 53 51 49 48 46 42 38 36 35 35 35 35 35 34 34 33 32 30 29 29 28 26 24 22 20 19 17 17 16 16 16 15 14 13 13 14 14 13 11 12 14
35 35 36 36 36 36 36 36 37 39 40 44 48 48 46 47 49 51 53 55 55 56 58 58 57 58 58 58 58 58 59 60 59 59 58 58 57 57 56 56 56 56 56 55 53 52 50 49 48 45 41 37 35 34 34 34 34 34 34 34 33 32 30 29 28 26 23 21 20 19 17 16 16 15 15 15 13 13 13 13 13 12 11 10 12 14
34 35 36 37 36 37 37 36 37 41 45 47 48 48 48 49 51 52 53 54 55 56 57 57 58 58 58 59 59 59 60 59 59 58 58 57 56 56 56 56 56 56 55 54 53 52 50 49 48 44 39 36 34 34 33 33 33 34 34 34 33 31 29 28 26 24 21 20 19 18 17 16 15 15 14 13 12 12 12 13 12 11 9 10 12 13
35 35 37 37 37 37 37 38 41 45 47 48 48 50 51 53 53 52 53 54 55 56 56 57 58 59 59 59 60 60 59 59 58 58 58 57 56 56 55 56 56 55 54 53 52 51 50 49 47 43 38 35 34 33 32 32 32 33 34 34 33 30 28 27 25 22 19 18 18 17 16 15 15 14 14 12 11 12 12 12 11 9 8 10 12 13
37 37 37 38 39 39 39 41 44 46 48 49 51 52 52 53 52 53 54 55 56 57 57 57 58 60 60 59 59 59 59 58 58 58 57 56 56 55 56 56 55 54 54 53 52 51 50 48 45 41 37 34 33 32 32 32 32 32 33 34 32 30 28 26 23 20 18 18 17 16 16 15 14 14 13 12 11 11 11 10 9 8 8 10 11 12
37 38 38 39 40 41 42 43 45 47 49 52 54 53 52 53 53 53 54 56 57 58 58 58 59 60 59 59 58 59 59 58 58 58 56 55 55 55 56 56 55 54 54 53 52 51 50 47 44 40 36 34 32 32 31 31 31 32 33 33 31 29 27 24 21 19 17 17 17 16 16 15 14 14 14 12 11 10 9 8 8 8 8 10 11 12
38 38 39 40 40 41 43 46 48 50 51 52 53 53 53 54 54 55 56 57 58 59 59 60 60 60 59 59 58 58 58 58 57 57 56 55 55 56 56 56 55 54 53 52 52 51 48 45 43 39 36 33 32 32 31 31 31 31 32 32 31 29 26 23 20 18 17 17 17 16 15 15 14 14 13 12 10 9 8 8 7 7 8 10 11 11
38 39 40 41 41 42 45 48 51 54 54 53 53 53 54 55 56 57 57 58 59 60 60 61 61 60 60 59 59 58 58 57 57 57 57 56 56 56 56 56 55 54 53 52 51 49 47 44 42 39 35 33 32 31 30 30 31 32 31 31 31 29 25 22 19 17 17 17 16 15 14 14 14 14 13 11 10 9 8 7 7 7 9 10 10 10
39 40 41 42 43 45 47 49 52 53 53 54 55 55 55 56 57 58 59 59 60 61 62 62 62 61 61 60 60 59 58 57 57 57 57 56 56 57 56 55 54 54 53 52 50 47 45 43 41 38 35 32 31 31 30 30 31 31 31 30 31 28 24 21 18 17 16 16 15 14 14 14 13 13 12 10 9 8 7 6 6 7 9 10 10 10
39 40 42 43 44 46 49 51 52 52 52 54 56 56 57 57 57 58 59 60 61 62 62 62 62 62 62 61 60 59 58 57 58 58 58 57 57 57 56 55 55 54 53 51 49 46 44 42 40 37 34 32 31 30 29 30 31 31 30 30 30 28 23 20 18 16 15 15 14 14 14 13 13 13 11 9 8 7 7 6 6 7 9 9 9 10
Wind_Direction
341 339 338 338 336 335 336 334 331 326 322 322 323 324 324 324 323 323 322 322 325 322 317 316 312 308 307 308 311 312 311 311 310 310 312 313 313 314 314 314 314 314 313 313 313 314 314 313 313 312 310 309 308 307 306 305 304 303 302 299 297 295 294 293 289 286 285 283 281 279 278 276 275 274 274 273 272 270 269 268 267 266 264 263 263 262
341 341 341 339 336 333 331 328 328 326 322 321 321 322 325 326 325 323 323 323 325 323 318 317 313 308 308 308 312 314 311 310 310 311 312 313 314 314 314 314 314 314 313 313 314 314 314 314 313 312 311 310 309 308 307 306 305 304 303 301 299 297 295 294 290 287 285 284 282 280 278 277 275 274 274 273 272 271 270 269 268 267 265 263 262 260
342 342 340 337 335 332 326 325 329 327 322 319 321 322 323 327 327 324 325 326 325 322 318 317 314 311 309 308 312 314 311 311 313 313 315 315 314 314 314 314 314 314 315 315 315 315 315 314 314 313 312 311 309 308 308 307 306 305 303 302 300 298 296 294 291 288 286 285 283 280 278 277 276 275 274 273 272 271 271 269 268 267 266 264 261 259
341 342 340 336 332 330 329 333 336 332 326 323 325 326 323 329 330 325 326 326 322 318 315 314 314 312 309 309 313 315 313 313 313 313 315 314 314 314 314 314 315 315 315 315 316 316 316 315 315 313 312 312 310 309 308 308 307 306 304 302 301 299 297 295 293 290 288 286 284 281 279 278 277 276 275 273 272 271 270 269 268 267 265 264 262 259
344 341 338 334 330 331 332 339 343 338 335 333 331 329 325 328 328 321 322 323 320 318 317 316 315 313 308 308 314 317 316 315 313 311 312 313 314 315 315 316 317 317 316 317 317 317 317 317 316 315 314 313 312 311 310 310 308 307 305 304 302 300 297 295 293 291 289 287 285 283 281 280 278 277 276 275 273 271 270 269 268 267 265 263 261 260
346 341 338 336 334 336 337 342 344 339 336 333 329 329 327 326 324 319 321 323 322 322 322 321 318 316 313 312 317 319 317 315 312 310 312 314 316 317 318 319 319 318 318 319 318 318 317 317 317 316 315 314 313 313 312 311 309 308 307 305 303 301 298 296 294 292 290 287 286 284 282 280 279 278 276 275 274 272 271 269 268 266 264 263 261 260
346 344 342 341 340 342 343 342 341 339 335 330 328 330 327 324 323 320 321 323 321 321 321 319 317 316 316 318 320 319 316 314 312 312 313 316 318 319 320 319 319 320 320 319 318 318 318 318 318 317 316 316 315 314 313 312 310 309 308 307 304 302 300 297 295 293 291 289 287 285 283 281 280 279 277 276 275 273 271 270 268 266 264 262 261 260
346 348 347 345 344 345 344 339 337 338 334 327 328 329 326 325 322 319 321 320 319 321 320 319 321 319 317 321 323 319 315 313 313 313 314 317 320 321 320 320 320 320 320 319 319 318 318 319 319 317 317 317 315 314 314 313 312 311 309 308 306 303 301 299 296 294 293 290 288 286 284 282 281 279 278 277 275 274 272 270 268 267 264 262 261 259
344 346 346 344 345 344 341 336 334 335 330 325 326 327 325 324 320 318 320 319 320 324 323 325 327 322 319 322 322 319 317 315 316 316 317 320 321 320 320 320 320 320 320 320 319 319 319 319 319 318 317 317 315 315 315 314 313 312 310 309 307 305 302 300 297 295 294 292 289 287 285 283 282 280 279 278 276 274 272 270 269 267 265 264 262 260
345 344 342 341 343 342 337 332 331 331 327 324 325 325 326 324 321 321 322 321 323 324 322 328 332 325 320 322 321 320 321 320 319 319 319 320 320 320 320 321 321 320 320 321 320 321 321 320 319 319 318 317 316 315 315 314 314 313 312 311 309 306 303 300 298 296 294 293 290 288 287 284 283 282 280 279 278 275 273 271 269 268 266 265 263 262
346 342 338 338 339 336 332 329 328 326 324 326 328 328 329 328 327 326 327 326 324 322 322 328 332 326 321 323 325 323 321 319 319 319 318 319 319 320 321 322 322 322 322 322 322 322 322 321 320 319 318 317 317 316 315 315 315 314 313 311 310 307 303 301 299 297 295 293 290 288 287 285 283 282 281 280 278 276 274 272 270 269 267 265 264 263
343 338 335 334 332 332 331 331 331 328 327 330 331 332 332 331 331 331 330 329 324 321 325 328 329 324 320 322 323 321 319 318 319 319 317 319 321 322 322 323 323 322 322 322 322 322 322 321 320 319 318 318 317 317 316 315 315 314 313 312 310 308 306 303 301 299 297 295 292 289 287 286 284 283 282 281 279 276 274 272 271 270 269 267 265 263
338 335 334 331 330 333 335 335 335 333 333 332 332 335 335 333 333 332 330 330 324 321 325 328 326 323 320 321 321 321 320 319 319 318 318 321 323 323 323 322 322 322 322 323 323 323 322 322 321 320 320 319 318 317 316 316 315 315 314 313 311 310 309 307 304 301 298 295 293 290 289 287 285 283 281 280 279 277 274 273 272 271 270 268 267 265
338 336 334 332 332 335 337 337 336 335 335 335 336 338 337 334 333 331 328 328 324 322 325 327 325 321 322 323 322 322 320 319 318 318 320 323 323 323 323 322 322 322 323 323 324 324 323 322 321 321 321 320 318 317 316 315 315 315 315 314 312 311 310 309 306 302 300 297 295 293 291 289 286 284 282 281 279 278 276 275 273 272 271 269 268 267
338 335 333 333 333 333 337 338 335 334 333 333 336 338 337 334 331 328 327 327 324 322 324 326 325 325 325 323 323 321 319 319 320 320 322 323 323 323 323 323 323 323 324 324 324 324 323 322 321 321 321 320 319 318 316 316 316 316 315 314 313 311 310 310 308 306 304 300 297 294 292 290 288 286 284 283 280 278 277 275 274 272 271 269 268 268
336 334 333 334 333 333 336 336 334 335 333 331 335 337 335 332 327 323 323 322 321 321 324 326 324 324 325 323 323 320 319 322 322 322 324 324 324 324 324 324 324 324 325 325 325 325 324 322 322 321 321 321 320 318 317 316 316 315 315 314 313 312 310 310 309 307 304 300 296 293 291 290 287 286 285 284 281 279 277 275 273 272 271 270 270 269
337 334 333 334 334 335 336 334 333 335 333 332 335 334 331 329 326 324 321 322 323 321 323 326 323 324 326 326 324 321 321 324 324 324 325 325 326 326 325 326 325 325 325 325 325 325 324 323 322 321 322 321 320 319 318 317 316 315 315 314 313 312 310 310 311 308 304 300 296 293 292 289 286 284 283 282 280 279 278 275 273 272 271 271 271 271
337 333 332 332 333 334 334 333 334 334 333 333 334 332 331 331 330 327 325 325 325 322 323 324 323 325 328 327 325 324 324 325 326 326 326 326 327 327 326 327 326 326 326 326 326 326 325 324 323 322 322 321 320 319 318 317 316 315 315 314 313 312 311 311 312 309 305 302 298 295 294 291 287 284 282 280 279 278 277 275 273 272 272 272 272 272
337 334 334 335 334 334 333 333 334 334 334 334 333 333 335 334 331 329 327 326 325 323 323 323 324 326 326 326 326 326 326 326 327 327 327 327 328 328 327 327 327 327 327 327 327 326 326 325 323 322 322 322 321 320 319 317 316 315 315 314 313 312 312 312 312 309 306 303 299 296 296 294 290 288 284 281 281 279 276 274 272 272 273 273 273 272
337 335 334 334 335 335 334 332 332 332 333 333 333 334 335 333 330 328 327 325 324 324 324 324 325 328 329 327 327 327 328 328 328 328 328 328 329 328 328 328 328 328 328 327 327 327 326 325 324 323 323 322 321 320 319 318 317 316 315 314 313 313 313 313 312 310 307 302 299 297 298 296 293 291 288 285 283 281 277 275 273 273 274 273 273 272
337 334 330 333 336 335 333 331 331 330 331 332 331 332 333 332 331 328 326 324 325 326 326 325 324 328 330 329 328 328 329 329 329 328 328 328 329 328 328 328 328 328 328 328 328 327 327 326 325 324 324 323 322 321 320 319 318 317 316 315 314 314 315 314 313 310 306 302 299 299 299 298 296 293 290 288 286 283 281 277 274 273 273 273 272 271
338 334 330 331 333 333 332 332 331 331 332 332 331 330 331 331 331 330 327 326 327 326 325 323 321 325 330 330 329 329 329 329 329 328 328 329 329 329 329 329 329 328 328 328 328 328 327 326 326 325 324 324 323 322 321 319 319 318 317 315 315 315 316 316 314 311 307 303 301 300 300 301 299 295 293 291 288 285 283 280 277 275 273 272 272 271
338 334 332 331 331 333 334 334 333 334 335 334 333 332 331 331 331 329 326 325 326 324 323 321 318 322 330 332 329 329 329 329 329 329 329 329 329 329 329 329 329 329 329 329 328 328 328 327 326 325 325 325 324 323 321 320 320 319 318 316 316 316 316 316 314 311 307 304 302 302 302 302 300 297 295 292 289 286 284 282 279 277 274 272 271 270
337 335 333 332 332 335 335 334 335 337 336 335 333 332 331 330 328 326 324 325 326 324 324 323 318 322 330 332 329 329 329 329 329 330 330 329 329 330 330 330 330 330 329 329 329 329 328 327 327 326 326 325 325 324 322 321 321 320 320 318 317 317 317 316 314 310 306 304 304 304 304 303 300 297 295 292 289 288 286 284 281 278 275 273 272 272
337 336 335 335 335 336 336 336 336 335 334 333 331 330 330 330 327 324 324 326 325 324 325 323 319 322 327 329 328 329 329 329 330 330 331 330 330 330 330 330 330 330 330 330 330 330 329 328 328 327 327 326 325 324 323 322 322 321 320 319 318 318 317 316 313 310 306 305 305 306 304 302 300 298 296 293 291 289 288 286 283 279 277 275 274 272
336 335 335 335 335 335 334 334 333 332 331 331 330 329 329 328 326 324 325 325 325 325 325 321 317 320 325 328 328 329 330 330 331 331 331 331 331 331 331 331 331 331 330 330 331 330 330 329 329 328 327 326 326 325 324 323 323 322 321 320 320 319 318 316 313 309 307 307 306 305 303 302 301 300 299 296 294 292 290 289 285 281 279 277 275 273
336 335 334 333 330 329 329 328 329 330 329 328 328 327 327 327 326 326 326 325 325 324 323 321 319 320 324 327 329 330 331 331 331 332 332 332 332 332 332 331 331 331 331 331 331 331 331 330 330 329 328 327 326 325 324 324 324 323 322 321 321 320 318 316 313 310 308 308 306 304 303 302 302 302 301 299 298 295 293 290 287 283 280 277 276 274
337 334 335 335 331 328 328 327 327 328 327 326 327 327 327 327 327 326 324 324 326 325 323 323 323 322 324 327 329 331 332 332 332 332 332 332 332 332 332 332 332 332 332 332 332 332 332 331 331 330 329 328 327 325 325 325 325 325 323 322 322 320 318 315 312 310 309 307 306 304 303 303 302 301 301 300 299 297 293 290 287 284 281 278 277 276
337 334 336 336 332 329 328 327 327 328 328 327 327 326 326 326 326 325 324 325 326 324 322 324 325 323 324 327 329 331 332 332 332 332 332 332 332 333 333 333 333 333 333 333 333 333 333 332 332 331 330 328 327 326 326 326 326 326 324 323 322 320 319 316 312 310 308 307 305 304 303 303 302 301 300 300 299 297 294 291 287 285 282 280 279 278
338 336 336 335 332 330 329 328 329 330 330 329 328 327 327 328 326 325 325 326 326 323 322 323 323 323 325 328 329 331 332 331 331 332 332 333 333 334 334 334 334 334 334 334 334 334 334 333 333 332 331 329 328 327 327 327 327 327 326 324 323 321 319 316 313 310 308 306 305 304 303 302 302 301 300 300 300 298 296 292 289 286 283 281 280 279
338 338 338 336 334 333 332 332 333 332 331 330 330 330 330 329 328 327 328 330 328 326 325 325 323 324 328 330 330 331 331 331 332 333 333 333 334 334 335 335 335 335 335 335 335 334 334 334 333 332 331 330 329 328 327 327 328 328 326 325 324 321 319 316 313 310 308 306 305 304 302 302 302 301 301 301 301 300 297 294 291 289 285 282 280 280
339 338 338 338 336 334 336 336 334 333 332 332 331 332 332 331 330 330 331 331 329 327 327 327 326 327 330 331 330 331 332 332 333 334 334 334 335 335 336 336 336 336 336 336 335 335 335 334 334 333 332 330 328 328 328 328 328 328 327 326 324 321 319 316 314 311 309 307 305 304 302 301 302 302 302 301 301 300 298 296 295 292 288 284 282 281
341 339 338 339 337 335 337 337 334 333 334 334 335 335 335 334 333 332 331 331 330 329 328 327 328 329 330 331 331 331 332 333 334 334 334 335 335 336 336 336 336 336 336 336 336 335 335 335 334 333 332 330 328 328 328 328 328 328 328 326 324 322 319 317 315 313 310 308 306 304 301 301 302 302 302 302 301 300 298 297 297 296 291 286 283 282
341 339 338 339 337 335 336 337 336 336 337 337 338 338 337 336 334 332 331 330 330 330 328 327 328 329 331 331 331 331 332 333 334 334 334 334 335 336 336 336 336 336 336 336 336 336 335 335 334 333 331 330 329 328 328 328 328 328 328 327 325 322 320 318 316 314 312 309 307 304 302 301 301 302 302 301 300 299 297 296 297 296 292 287 284 284
340 338 338 340 338 335 337 340 340 339 338 337 338 339 338 336 335 332 330 330 330 329 329 328 330 331 331 331 331 331 331 332 333 333 334 335 336 336 336 336 337 337 337 337 336 336 335 335 334 333 331 330 329 328 328 328 328 328 328 328 326 323 321 319 317 315 313 311 309 306 303 301 301 301 301 301 300 299 298 297 297 295 292 288 285 285
340 339 339 339 338 337 340 342 339 336 337 338 338 339 338 336 336 333 332 332 332 332 332 332 332 332 331 331 331 331 331 332 332 333 334 336 336 336 336 337 337 337 337 337 336 336 335 335 333 332 331 330 329 328 328 328 328 328 329 329 327 324 321 319 317 316 314 312 310 307 304 302 301 301 301 301 300 299 299 299 297 294 292 290 286 286
340 340 340 340 340 339 339 338 336 334 337 338 338 340 340 338 337 335 332 333 335 336 336 335 333 332 332 331 332 332 332 332 333 334 335 336 336 336 336 336 336 336 336 336 336 335 335 334 333 332 331 329 328 328 328 327 328 329 330 329 328 325 322 320 318 316 315 313 310 308 304 301 300 300 301 300 299 300 300 299 296 293 292 290 289 290
340 340 342 341 340 340 338 338 338 338 339 341 340 341 341 338 336 334 332 333 337 340 338 335 333 333 333 332 333 333 333 333 334 335 336 336 336 336 335 335 335 335 335 336 336 335 335 334 333 332 331 329 328 328 328 327 328 330 330 330 328 325 323 320 319 318 316 314 311 308 304 300 298 299 300 299 299 300 300 297 293 292 292 293 293 295
340 340 342 341 339 340 339 338 339 338 339 341 341 340 339 337 335 334 333 335 339 339 337 335 334 334 334 333 333 334 334 334 334 335 336 335 335 335 335 334 334 334 334 335 335 335 335 334 333 332 331 329 328 328 328 328 329 330 331 330 328 326 323 322 321 319 317 315 312 309 304 300 297 297 298 298 299 299 297 294 292 292 294 296 297 298
341 341 342 341 338 339 338 337 338 338 337 339 340 339 338 337 336 336 335 336 338 338 336 336 335 334 334 334 334 335 335 334 333 333 334 334 334 334 334 334 334 334 334 335 335 335 335 335 334 332 331 329 328 328 328 328 329 331 331 331 329 327 325 324 323 321 319 317 314 310 306 301 298 297 297 297 298 297 294 292 292 294 297 298 299 301
343 342 342 340 339 339 339 338 338 338 338 339 339 338 337 337 338 337 335 335 337 337 336 336 335 334 335 335 334 334 334 333 332 332 333 333 333 334 334 333 334 334 334 334 334 334 335 335 334 333 331 329 328 328 328 328 329 331 332 331 330 328 326 325 324 323 321 319 316 312 309 305 301 299 299 298 298 296 292 291 293 297 298 299 301 305
344 343 342 341 341 340 339 338 338 339 340 340 338 338 339 339 338 337 335 335 336 336 336 336 335 335 335 335 334 333 332 332 332 332 333 333 333 334 334 334 334 334 334 334 334 334 335 335 334 333 331 329 328 328 328 329 330 331 332 332 330 329 327 326 326 325 323 321 319 316 313 309 306 303 302 301 299 295 292 292 296 298 298 299 304 309
344 344 343 342 342 342 341 340 341 341 340 339 338 339 341 340 337 335 335 335 336 336 336 336 336 335 335 334 334 333 333 333 333 333 333 333 333 334 334 334 334 334 334 334 335 335 335 335 335 333 331 329 328 328 329 329 330 331 332 332 331 329 328 328 327 327 325 324 323 321 318 315 312 309 307 304 300 296 293 295 298 298 297 301 309 314
345 344 343 342 344 343 342 342 341 339 338 340 340 340 339 338 336 336 336 336 337 337 336 336 336 336 336 335 334 334 334 333 334 334 334 334 334 334 334 334 335 334 334 335 335 335 336 335 334 333 331 329 329 329 329 330 330 331 332 333 332 331 330 329 329 328 327 327 326 324 323 320 317 314 311 308 303 298 296 299 300 297 298 306 313 316
345 345 344 343 343 342 339 338 337 337 338 340 340 339 338 338 338 338 337 337 337 337 337 337 336 336 336 335 335 334 334 334 334 334 334 334 334 335 334 334 335 335 335 335 335 336 336 335 334 333 331 329 329 329 330 330 330 331 333 334 333 332 332 331 330 329 329 328 327 326 325 322 320 318 316 311 305 301 301 302 302 298 302 312 317 318
346 347 346 344 342 341 339 337 337 338 340 341 340 338 338 338 339 339 339 338 338 338 337 337 337 336 336 336 335 335 335 335 334 335 335 335 335 335 335 335 335 335 335 336 336 336 335 335 334 333 331 330 330 330 331 331 331 332 333 334 334 334 333 332 331 330 329 327 326 326 325 323 321 321 320 315 308 304 304 304 303 303 307 315 320 322
348 347 346 344 343 342 341 340 341 341 341 340 339 339 339 339 340 340 339 338 338 338 338 338 337 337 337 336 336 336 335 335 335 335 335 336 335 335 335 335 335 335 335 336 336 336 335 335 335 334 331 330 330 331 331 331 332 333 333 334 335 335 334 333 331 330 329 327 326 326 325 324 323 324 323 319 314 310 307 306 307 307 309 317 323 324
348 347 345 344 344 342 340 341 342 341 340 339 339 340 340 340 340 340 339 339 338 338 339 339 338 338 337 337 337 336 336 336 336 336 336 336 336 336 336 335 335 335 336 336 336 335 335 335 335 334 332 330 330 331 331 331 332 333 334 335 336 335 333 332 331 328 327 326 326 326 326 326 325 325 324 321 317 313 310 310 313 313 312 318 323 322
348 347 346 344 343 342 340 341 342 341 341 341 341 341 341 340 340 340 340 339 339 339 339 339 339 338 338 338 337 337 336 337 337 337 337 337 337 336 336 335 335 336 336 335 335 335 335 335 335 334 331 330 330 330 331 332 333 333 334 335 337 336 333 330 329 327 325 325 326 327 328 328 326 325 323 319 316 314 311 308 312 315 316 321 324 322
349 348 347 346 344 343 343 343 342 341 341 342 342 341 341 341 340 340 340 340 341 341 340 340 339 339 339 339 338 338 338 338 338 338 338 337 337 336 335 336 336 336 336 335 335 336 335 335 335 333 331 330 330 330 331 332 333 333 334 336 337 336 332 329 327 326 324 325 326 327 328 328 327 326 324 320 317 318 315 309 311 318 321 323 328 331
351 349 349 347 344 343 342 342 341 340 340 340 341 341 341 341 341 341 341 342 342 341 341 341 340 340 340 340 340 339 339 338 338 338 338 337 337 336 336 336 336 336 336 336 336 336 335 335 334 333 331 330 330 331 332 332 332 333 335 336 337 335 331 328 327 325 323 324 325 326 327 328 328 328 327 323 318 319 321 318 317 323 329 332 335 339